カタログに戻る

ARIANE 5 R/B

運用中HEO
NORAD 33462·ROCKET BODY·🇫🇷 France

打ち上げ Dec 20, 2008 から Guiana Space Centre

Loading…

次のパス (今後24時間)

TLE

最新Source: Space-Track

元期: Sep 14, 2026, 11:48 UTC

1 33462U 08065D   26257.49211061  .00002426  00000-0  98264-3 0  9999
2 33462   4.1369 287.7708 7092675  52.8626 352.8437  2.50860371154674

AllMySatでARIANE 5 R/Bをリアルタイム追跡

Download on the App Store